Location: Kalberh�ni
(46.4610°N, 7.2453°E)
Time: 07:51:44
(UTC+00:00)

FALCON 9 DEB - Pass Details

Date: 25 October 2021
Orbit: 344 x 354 km, 53.0° (Epoch: 30 November)

Event Time Altitude Azimuth Distance (km) Brightness Sun altitude
Rises 18:41:22 0° 230° (SW) 2,169 7.3 -23.8°
Reaches altitude 10° 18:43:23 10° 226° (SW) 1,333 6.1 -24.1°
Enters shadow 18:43:59 15° 224° (SW) 1,089 5.5 -24.2°
